Regional Weather Roundup
Issued by NWS Wakefield, VA

Home | Current Version | Previous Version | Text Only | Print | Product List | Glossary On
Versions: 1 2 3 4 5 6 7 8 9 10 11 12 13 14 15 16 17 18 19 20 21 22 23 24 25 26 27 28 29 30 31 32 33 34 35 36 37 38 39 40 41 42 43 44 45 46 47 48 49 50
000
ASUS41 KAKQ 060315
RWRAKQ

REGIONAL WEATHER ROUNDUP
NATIONAL WEATHER SERVICE WAKEFIELD VA
1100 PM EDT SUN JUL 05 2015

Note: "fair" indicates few or no clouds below 12,000 feet with no
significant weather and/or obstructions to visibility. * = Denotes
station may not report precipitation (e.g., rain,snow,etc.),
thunder or fog.

VAZ042-051-052>054-056-060400-
NORTHERN VIRGINIA

CITY           SKY/WX    TMP DP  RH WIND       PRES   REMARKS
WASH NATIONAL  CLOUDY    79  70  74 CALM      30.13S
DULLES         CLOUDY    76  70  82 S6        30.13R
FORT BELVOIR   CLOUDY    73  70  91 CALM      30.13R
QUANTICO       CLOUDY    77  70  79 SE7       30.13S
FREDERICKSBRG* CLOUDY    76  76 100 SE5       30.12S
STAFFORD*      CLOUDY    72  70  93 CALM      30.16F FOG
WARRENTON      DRIZZLE   73  73 100 CALM      30.13S
CULPEPER*      LGT RAIN  70  70  99 CALM      30.13F
MANASSAS*      CLOUDY    73  72  94 SE5         N/A
LEESBURG*      MOCLDY    77  73  88 SE6       30.14S
WINCHESTER     CLOUDY    73  70  88 CALM      30.13S
FRONT ROYAL*   CLOUDY    72  70  94 CALM      30.12S
LURAY*         LGT RAIN  72  72 100 E5        30.14R
$$

VAZ048-049-060>072-079>083-060400-
CENTRAL AND SOUTH CENTRAL VIRGINIA

CITY           SKY/WX    TMP DP  RH WIND       PRES   REMARKS
RICHMOND       LGT RAIN  74  72  93 E5        30.13S
CHESTERFIELD*  NOT AVBL
PETERSBURG*    LGT RAIN  73  73 100 CALM      30.12F
HANOVER        CLOUDY    73  72  96 VRB5      30.14R
TAPPAHANNOCK*  DRIZZLE   74  72  91 CALM      30.14F
QUINTON*       NOT AVBL
CHARLOTTSVILLE LGT RAIN  74  72  93 S3        30.13R FOG
GORDONSVILLE*  FAIR      72  72 100 CALM      30.13R FOG
ORANGE*        LGT RAIN  72  72 100 CALM      30.14F
LOUISA*        CLOUDY    72  70  94 CALM      30.13R
BUMPASS*       CLOUDY    72  72  98 CALM      30.13R
FARMVILLE*     CLOUDY    72  72 100 SE6       30.11S
CREWE*         MOCLDY    71  69  95 CALM      30.12F
FORT PICKETT*  MOCLDY    70  69  98 W8        30.12F
CHASE CITY*    CLOUDY    73  73 100 CALM      30.14R
CLARKSVILLE*   CLOUDY    70  70 100 CALM      30.13S
SOUTH HILL*    CLOUDY    70  70  99 CALM      30.19R
LAWRENCEVILLE* NOT AVBL
EMPORIA*         N/A     70  70 100 CALM      30.13R
$$

VAZ088>098-060400-
SOUTHEAST VIRGINIA

CITY           SKY/WX    TMP DP  RH WIND       PRES   REMARKS
NORFOLK        LGT RAIN  72  68  87 CALM      30.13S
VIRGINIA BEACH TSTM      77  71  82 NW10      30.13R
NORFOLK NAVAL  TSTM      72  70  93 NE6       30.16R FOG
WEST POINT*    CLOUDY    77  74  90 SE3       30.15S
SALUDA*        MOCLDY    74  73  95 S6        30.13F
NEWPORT NEWS   TSTM      75  73  93 E6        30.14F FOG
LANGLEY AFB    TSTM      72  70  94 NE12      30.11F FOG
FORT EUSTIS    LGT RAIN  75 N/A N/A E2        30.11F
WILLIAMSBURG*  CLOUDY    77  75  94 SE5       30.14F
HR EXEC AP*    MOCLDY    72  66  83 N3        30.16S
FRANKLIN*      TSTM      73  70  91 N12       30.14S
WAKEFIELD      RAIN      73  71  93 E3        30.12F
$$

VAZ020-022-025-037-045-060400-
WEST CENTRAL AND SOUTHWEST VIRGINIA

CITY           SKY/WX    TMP DP  RH WIND       PRES   REMARKS
STAUNTON*      RAIN      73  71  93 CALM      30.16F
WAYNESBORO*    CLOUDY    70  70  99 E3        30.15S
HOT SPRINGS VA DRZL/FOG  65  65 100 E6        30.23S VSB<1/4
LYNCHBURG      LGT RAIN  71  70  96 CALM      30.13F
DANVILLE       MOCLDY    71  68  90 E3        30.10F
SOUTH BOSTON*  MOCLDY    69  68  96 MISG      30.12F
MARTINSVILLE   MOCLDY    69  69 100 CALM      30.12F
ROANOKE        CLOUDY    69  68  96 SE3       30.14S
BLACKSBURG     CLOUDY    69  69 100 E7        30.17S
DUBLIN*        LGT RAIN  69  69 100 CALM      30.14S
MARION*        CLOUDY    67  65  96 CALM      30.18R
HILLSVILLE*    HVY RAIN  67  66  99 S5        30.15R
RICHLANDS*     MOCLDY    65  65 100 CALM      30.16R
WISE*          MOCLDY    66  66 100 CALM      30.16R
ABINGDON*      DRIZZLE   69  69 100 CALM      30.14R
$$

MDZ021>025-VAZ099-100-060400-
SOUTHERN MARYLAND AND THE DELMARVA PENINSULA

CITY           SKY/WX    TMP DP  RH WIND       PRES   REMARKS
PATUXENT RIVER LGT RAIN  76  72  87 S7        30.14R
BAY BRIDGE APT   N/A     75  70  83 SE5       30.13F
LEONARDTOWN    CLOUDY    73  70  88 CALM      30.15S
DOVER          MOCLDY    71  71 100 SE6       30.13S
GEORGETOWN     CLOUDY    72  70  93 SE3       30.16R
EASTON         CLOUDY   N/A N/A N/A SE7       30.17F
CAMBRIDGE      CLOUDY    77  72  83 SE6       30.15R
SALISBURY      CLOUDY    72  70  93 SE3       30.16R
OCEAN CITY     CLOUDY    75  71  87 CALM      30.16R
WALLOPS ISLAND CLOUDY    75  72  90 SE7       30.15S
ACCOMACK*      CLOUDY    73  73 100 SE3       30.14F
$$

NCZ012>017-030>032-060400-
NORTH CENTRAL AND EASTERN NORTH CAROLINA

CITY           SKY/WX    TMP DP  RH WIND       PRES   REMARKS
ROANOKE RAPIDS HVY RAIN  70  70 100 W5        30.14R
RALEIGH        CLOUDY    70  68  93 E5        30.12S
ELIZABETH CITY HAZE      79  72  79 S7        30.12R VSB 3/4
AHOSKIE*       CLOUDY   N/A N/A N/A CALM      30.12F
EDENTON*         N/A     79  71  76 S9        30.12S
CURRITUCK*     PTCLDY    78  74  88 CALM      30.13S
KILL DEVIL HLS PTCLDY    79  74  84 SW6       30.12S
MANTEO         PTCLDY    79  75  87 SW12      30.14R
CAPE HATTERAS  CLEAR     77  74  90 SW9       30.16R
TARBORO*         N/A     76  71  85 CALM      30.12S
GOLDSBORO      NOT AVBL
WASHINGTON     PTCLDY    78  73  84 S6        30.13S
GREENVILLE     MOCLDY    81  73  78 SW9       30.13S
NEW BERN       PTCLDY    78  74  87 S6        30.14R
WILMINGTON     PTCLDY    79  74  84 S9        30.13S
$$

VAZ048-060400-
ELSEWHERE

CITY           SKY/WX    TMP DP  RH WIND       PRES   REMARKS
HARRISBURG PA  CLOUDY    73  66  78 CALM      30.13R
BALTIMORE      CLOUDY    75  68  78 CALM      30.13S
ANNAPOLIS      CLOUDY    76  71  85 CALM      30.12F
ANDREWS AFB    CLOUDY    73  73  99 SE5       30.13R
PHILADELPHIA   MOCLDY    76  67  73 SW6       30.15R
HENDERSON NC   LGT RAIN  71  69  92 CALM      30.14S
GREENSBORO     MOCLDY    72  71  97 SE7       30.09F
ROCKY MOUNT    CLOUDY    74  71  91 NW9       30.13R
$$

VAZ100-060400-
MARINE

STATION/POSITION TIME  TEMP    WIND        PRES    WAVE   SWELL
                       AIR SEA DIR/SP/G            HT/PER HT/PER
                 (UTC) (F)     (DEG/KT/KT) (MB)    (FT/S) (FT/S)
BRANDYWINE LGT   0200   73 74  150/ 11/ 13 1020.9R
CAPE MAY NJ      0200   73 78  120/  4/  5 1020.6R
LEWES DE         0200   73 74  140/  5/  7 1020.7R
15NM E FENWICK I 0250   75 75              1020.7R   4/ 6
OCEAN-CITY-INLET 0200   75 76  130/  6/  9 1020.5R
WACHAPREAGUE VA  0200   76 82  100/  5/  7 1020.8R
GOOSES REEF MD   0300   79 79  180/ 14/ 16 1021.3R
COVE POINT MD    0200   78     190/ 11/ 12 1020.9R
SOLOMONS ISLAND  0200      82                N/A
BISHOPS HEAD MD  0200   77     130/ 10/ 12 1020.5R
PINEY POINT MD   0200          180/ 10/ 12   N/A
CAMBRIDGE MD     0200   78 79  130/  2/  4 1020.4R
LEWISETTA VA     0200   77 81  180/  5/  5 1020.3R
RAPPAHANNOCK LGT 0200          110/  7/  8 1021.2R
STINGRAY PT      0300   78 80  150/  8/ 10 1020.5F   1/ 2
YORK RVR RNG VA  0200   77     130/  3/  5 1020.2R
YORKTOWN VA      0200   76 81  280/  2/  3 1020.3R
JAMESTOWN VA     0300   76 82  110/  6/  8   N/A
DOMINION TERM VA 0200   71     290/ 33/ 41 1019.4S
KIPTOPEKE VA     0200      83  100/  6/  9   N/A
CHES BAY BRIDGE  0200   77 78   60/  8/  9 1019.9R
CAPE HENRY VA    0200   77      90/  7/  8   N/A
CHESAPEAKE LGHT  0200   77      90/ 11/ 12 1020.9R
WILLOUBY STN VA  0200   74     280/ 10/ 26 1021.2R
CAPE HENRY BUOY  0228      78                N/A     3/ 8
1ST LANDING BUOY 0300      78              1020.0S   1/ 3
CAPE CHARLES BUO 0226      77                N/A     2/ 6   2/ 6
OFFSHORE WE BUOY 0211      78                N/A     3/ 6   2/ 6
64NM E OF VA BCH 0250   78 78  160/  8/ 10 1020.3R   3/ 9   3/ 9
DUCK PIER NC     0200   81 76  200/ 12/ 16   N/A
44100 DUCK FRF   0224      79                N/A     2/ 8
44056 DUCK FRF   0211      78                N/A     2/ 5
OREGON INLET NC  0200   81 84  190/ 19/ 21 1020.2R
HATTERAS NC      0200   79 81  210/  9/ 13 1020.4R
DIAMOND SHLS NC  0250   81 81  220/ 16/ 17 1020.8R   3/ 4   2/ 8
CAPE LOOKOUT NC  0300   80     210/ 12/ 14 1020.6F
$$


USA.gov is the U.S. government's official web portal to all federal, state and local government web resources and services.